TimeEST,TemperatureF,Dew PointF,Humidity,Sea Level PressureIn,VisibilityMPH,Wind Direction,Wind SpeedMPH,Gust SpeedMPH,PrecipitationIn,Events,Conditions,WindDirDegrees,DateUTC
12:15 AM,37.4,37.4,100,30.18,7.0,Calm,Calm,-,0.02,Rain,Light Rain,0,2013-12-29 05:15:00
12:35 AM,37.4,37.4,100,30.17,5.0,Calm,Calm,-,0.05,Rain,Light Rain,0,2013-12-29 05:35:00
12:55 AM,37.4,37.4,100,30.16,3.0,Calm,Calm,-,0.06,Rain,Light Rain,0,2013-12-29 05:55:00
1:15 AM,37.4,37.4,100,30.14,3.0,Calm,Calm,-,0.01,,Overcast,0,2013-12-29 06:15:00
2:15 AM,37.4,37.4,100,30.09,3.0,Calm,Calm,-,N/A,Rain,Light Rain,0,2013-12-29 07:15:00
2:35 AM,37.4,37.4,100,30.08,2.5,Calm,Calm,-,0.01,Rain,Light Rain,0,2013-12-29 07:35:00
2:55 AM,37.4,37.4,100,30.06,3.0,Calm,Calm,-,0.01,,Drizzle,0,2013-12-29 07:55:00
3:15 AM,37.4,37.4,100,30.06,2.0,Calm,Calm,-,0.01,,Drizzle,0,2013-12-29 08:15:00
3:35 AM,37.4,37.4,100,30.04,4.0,Calm,Calm,-,0.02,,Drizzle,0,2013-12-29 08:35:00
3:55 AM,37.4,37.4,100,30.02,3.0,Calm,Calm,-,0.04,Rain,Light Rain,0,2013-12-29 08:55:00
4:35 AM,37.4,37.4,100,29.98,4.0,NNE,3.5,-,0.03,,Heavy Drizzle,20,2013-12-29 09:35:00
4:55 AM,37.4,37.4,100,29.98,3.0,NNW,3.5,-,0.05,Rain,Heavy Rain,330,2013-12-29 09:55:00
5:15 AM,37.4,37.4,100,29.97,3.0,Calm,Calm,-,0.02,,Heavy Drizzle,0,2013-12-29 10:15:00
5:35 AM,37.4,37.4,100,29.95,4.0,North,5.8,-,0.03,,Drizzle,10,2013-12-29 10:35:00
5:55 AM,37.4,37.4,100,29.92,4.0,North,6.9,-,0.06,Rain,Rain,10,2013-12-29 10:55:00
6:15 AM,37.4,37.4,100,29.92,2.0,Calm,Calm,-,0.07,Rain,Heavy Rain,0,2013-12-29 11:15:00
6:35 AM,37.4,37.4,100,29.92,4.0,West,3.5,-,0.13,Rain,Rain,270,2013-12-29 11:35:00
6:55 AM,37.4,37.4,100,29.91,1.5,Calm,Calm,-,0.26,Snow,Light Snow,0,2013-12-29 11:55:00
7:15 AM,37.4,37.4,100,29.91,5.0,Calm,Calm,-,0.09,Rain,Light Rain,0,2013-12-29 12:15:00
7:55 AM,37.4,37.4,100,29.88,4.0,Calm,Calm,-,0.13,Rain,Rain,0,2013-12-29 12:55:00
8:15 AM,37.4,37.4,100,29.89,4.0,West,3.5,-,0.02,Rain,Heavy Rain,280,2013-12-29 13:15:00
8:55 AM,37.4,37.4,100,29.88,3.0,Calm,Calm,-,0.04,Rain,Light Rain,0,2013-12-29 13:55:00
9:15 AM,37.4,37.4,100,29.87,4.0,Calm,Calm,-,N/A,,Overcast,0,2013-12-29 14:15:00
9:55 AM,39.2,39.2,100,29.84,5.0,Calm,Calm,-,N/A,,Overcast,0,2013-12-29 14:55:00
10:15 AM,41.0,41.0,100,29.85,7.0,Calm,Calm,-,N/A,,Overcast,0,2013-12-29 15:15:00
10:35 AM,41.0,41.0,100,29.83,10.0,North,-9999.0,-,N/A,,Overcast,0,2013-12-29 15:35:00
10:55 AM,41.0,41.0,100,29.84,10.0,SW,3.5,-,N/A,,Overcast,220,2013-12-29 15:55:00
11:15 AM,41.0,41.0,100,29.84,10.0,West,4.6,-,N/A,,Overcast,260,2013-12-29 16:15:00
11:35 AM,42.8,42.8,100,29.83,10.0,SW,4.6,-,N/A,,Overcast,220,2013-12-29 16:35:00
11:55 AM,42.8,42.8,100,29.82,10.0,WSW,3.5,-,N/A,,Overcast,240,2013-12-29 16:55:00
12:15 PM,44.6,42.8,93,29.80,10.0,SSW,4.6,-,N/A,,Overcast,200,2013-12-29 17:15:00
12:35 PM,46.4,44.6,93,29.80,10.0,Calm,Calm,-,N/A,,Scattered Clouds,0,2013-12-29 17:35:00
12:55 PM,50.0,46.4,87,29.80,10.0,SSW,6.9,-,N/A,,Clear,210,2013-12-29 17:55:00
1:15 PM,51.8,46.4,82,29.80,10.0,SW,8.1,-,N/A,,Clear,230,2013-12-29 18:15:00
1:35 PM,55.4,44.6,67,29.79,10.0,West,9.2,-,N/A,,Clear,260,2013-12-29 18:35:00
1:55 PM,55.4,42.8,63,29.79,10.0,WSW,12.7,20.7,N/A,,Clear,250,2013-12-29 18:55:00
2:15 PM,55.4,41.0,58,29.80,10.0,WSW,15.0,24.2,N/A,,Clear,250,2013-12-29 19:15:00
2:35 PM,55.4,41.0,58,29.81,10.0,WSW,13.8,23.0,N/A,,Scattered Clouds,250,2013-12-29 19:35:00
2:55 PM,53.6,41.0,62,29.82,10.0,West,15.0,25.3,N/A,,Mostly Cloudy,260,2013-12-29 19:55:00
3:15 PM,53.6,41.0,62,29.83,10.0,WSW,12.7,19.6,N/A,,Scattered Clouds,250,2013-12-29 20:15:00
3:35 PM,53.6,41.0,62,29.83,10.0,West,12.7,19.6,N/A,,Clear,260,2013-12-29 20:35:00
3:55 PM,53.6,39.2,58,29.85,10.0,WSW,10.4,17.3,N/A,,Clear,250,2013-12-29 20:55:00
4:15 PM,51.8,41.0,67,29.85,10.0,SW,8.1,-,N/A,,Scattered Clouds,230,2013-12-29 21:15:00
4:35 PM,51.8,39.2,62,29.85,10.0,SW,4.6,-,N/A,,Scattered Clouds,230,2013-12-29 21:35:00
4:55 PM,50.0,37.4,62,29.87,10.0,West,5.8,-,N/A,,Clear,260,2013-12-29 21:55:00
5:15 PM,48.2,37.4,66,29.87,10.0,West,3.5,-,N/A,,Clear,260,2013-12-29 22:15:00
5:35 PM,44.6,37.4,76,29.88,10.0,Calm,Calm,-,N/A,,Clear,0,2013-12-29 22:35:00
5:55 PM,44.6,37.4,76,29.89,10.0,SSE,3.5,-,N/A,,Clear,150,2013-12-29 22:55:00
6:15 PM,44.6,37.4,76,29.89,10.0,Calm,Calm,-,N/A,,Clear,0,2013-12-29 23:15:00
6:35 PM,42.8,37.4,81,29.90,10.0,Calm,Calm,-,N/A,,Clear,0,2013-12-29 23:35:00
7:15 PM,42.8,37.4,81,29.92,10.0,Calm,Calm,-,N/A,,Clear,0,2013-12-30 00:15:00
7:55 PM,42.8,37.4,81,29.93,10.0,Calm,Calm,-,N/A,,Clear,0,2013-12-30 00:55:00
8:15 PM,41.0,35.6,81,29.95,10.0,SW,3.5,-,N/A,,Clear,230,2013-12-30 01:15:00
8:35 PM,42.8,37.4,81,29.95,10.0,Calm,Calm,-,N/A,,Clear,0,2013-12-30 01:35:00
8:55 PM,41.0,35.6,81,29.95,10.0,NW,5.8,-,N/A,,Clear,310,2013-12-30 01:55:00
9:15 PM,42.8,35.6,76,29.95,10.0,NW,6.9,-,N/A,,Clear,310,2013-12-30 02:15:00
9:35 PM,42.8,33.8,70,29.96,10.0,Calm,Calm,-,N/A,,Clear,0,2013-12-30 02:35:00
9:55 PM,39.2,33.8,81,29.96,10.0,WNW,8.1,-,N/A,,Clear,300,2013-12-30 02:55:00
10:15 PM,44.6,33.8,66,29.96,10.0,West,6.9,-,N/A,,Clear,280,2013-12-30 03:15:00
10:35 PM,44.6,32.0,61,29.97,10.0,West,3.5,-,N/A,,Clear,280,2013-12-30 03:35:00
10:55 PM,42.8,32.0,66,29.97,10.0,WNW,11.5,-,N/A,,Clear,290,2013-12-30 03:55:00
11:15 PM,44.6,32.0,61,29.98,10.0,WNW,8.1,18.4,N/A,,Clear,300,2013-12-30 04:15:00
11:35 PM,44.6,32.0,61,29.99,10.0,NW,4.6,-,N/A,,Clear,310,2013-12-30 04:35:00
11:55 PM,44.6,32.0,61,29.99,10.0,WNW,11.5,17.3,N/A,,Clear,290,2013-12-30 04:55:00